Massena, NY

6:38 PM EST on December 18, 2017 (GMT -0500)
Massena International-Richards

Weather History for KMSS - October, 2013

Change the Weather History Date:

Sunday, October 27, 2013

  Actual Average Record
Temperature  
Mean Temperature 40 °F 42 °F  
Max Temperature 46 °F 52 °F 72 °F (1989)
Min Temperature 34 °F 33 °F 18 °F (1974)
Degree Days  
Heating Degree Days 25 23  
Month to date heating degree days 365 489  
Since 1 July heating degree days 666 789  
Cooling Degree Days 0 0  
Month to date cooling degree days 0 0  
Year to date cooling degree days 418 361  
Moisture  
Dew Point 34 °F    
Average Humidity 71    
Maximum Humidity 92    
Minimum Humidity 49    
Precipitation  
Precipitation 0.05 in 0.11 in 1.57 in (1981)
Month to date precipitation 2.17 2.90  
Year to date precipitation 30.73 29.09  
Sea Level Pressure  
Sea Level Pressure 29.87 in    
Wind  
Wind Speed 9 mph (WSW)    
Max Wind Speed 17 mph    
Max Gust Speed 23 mph    
Visibility 10 miles    
Events Rain    
T = Trace of Precipitation, MM = Missing Value Source: NWS Daily Summary

Daily Weather History Graph

Daily Weather History Graph

Search for Another Location

Airport or City:

Trip Planner

Search our weather history database for the weather conditions in past years. The results will help you decide how hot, cold, wet, or windy it might be!

Date:

Astronomy

Oct. 27, 2013 Rise Set
Actual Time 7:31 AM EDT 5:54 PM EDT
Civil Twilight 7:00 AM EDT 6:24 PM EDT
Nautical Twilight 6:26 AM EDT 6:59 PM EDT
Astronomical Twilight 5:52 AM EDT 7:33 PM EDT
Moon 12:08 AM EDT (10/27) 2:18 PM EDT (10/27)
Length of Visible Light 11h 23m
Length of Day
10h 23m
Last Quarter, 44% of the Moon is Illuminated
Oct 27
Last Quarter
Nov 3
New
Nov 10
First Quarter
Nov 17
Full
Nov 25
Last Quarter

Hourly Weather History & Observations

Time (EDT) Temp. Windchill Dew Point Humidity Pressure Visibility Wind Dir Wind Speed Gust Speed Precip Events Conditions
12:53 AM 41.0 °F 33.1 °F 37.0 °F 86% 29.73 in 10.0 mi SSW 15.0 mph - 0.00 in Rain Light Rain
1:53 AM 41.0 °F 34.7 °F 37.9 °F 89% 29.75 in 9.0 mi SSW 10.4 mph - 0.01 in Rain Light Rain
2:42 AM 41.0 °F 35.2 °F 37.4 °F 87% 29.73 in 9.0 mi SSW 9.2 mph - 0.01 in Rain Light Rain
2:53 AM 39.9 °F 33.4 °F 37.9 °F 93% 29.75 in 10.0 mi SSW 10.4 mph - 0.01 in Rain Light Rain
3:53 AM 39.9 °F 32.9 °F 37.0 °F 89% 29.74 in 9.0 mi SSW 11.5 mph - 0.00 in Rain Light Rain
4:46 AM 39.2 °F 34.2 °F 37.4 °F 93% 29.73 in 10.0 mi SSW 6.9 mph - 0.01 in Rain Light Rain
4:53 AM 39.9 °F 34.5 °F 37.0 °F 89% 29.75 in 10.0 mi SSW 8.1 mph - 0.01 in   Overcast
5:22 AM 39.2 °F 34.2 °F 37.4 °F 93% 29.75 in 10.0 mi SSW 6.9 mph - N/A   Overcast
5:53 AM 39.9 °F 33.4 °F 37.0 °F 89% 29.77 in 7.0 mi SW 10.4 mph - 0.00 in Rain Light Rain
6:53 AM 41.0 °F 35.2 °F 37.9 °F 89% 29.78 in 10.0 mi West 9.2 mph 16.1 mph 0.02 in   Overcast
7:13 AM 41.0 °F 33.9 °F 35.6 °F 81% 29.78 in 10.0 mi West 12.7 mph - N/A   Overcast
7:53 AM 39.9 °F 32.5 °F 35.1 °F 83% 29.82 in 10.0 mi West 12.7 mph - N/A   Overcast
8:26 AM 39.2 °F 32.0 °F 35.6 °F 87% 29.83 in 10.0 mi West 11.5 mph 20.7 mph N/A   Overcast
8:53 AM 39.9 °F 32.1 °F 35.1 °F 83% 29.86 in 10.0 mi West 13.8 mph 19.6 mph N/A   Overcast
9:53 AM 39.9 °F 33.9 °F 34.0 °F 79% 29.88 in 10.0 mi West 9.2 mph - N/A   Overcast
10:53 AM 41.0 °F 34.7 °F 34.0 °F 76% 29.91 in 10.0 mi West 10.4 mph - N/A   Overcast
11:53 AM 43.0 °F 36.8 °F 35.1 °F 74% 29.91 in 10.0 mi West 11.5 mph - N/A   Overcast
12:10 PM 42.8 °F 37.5 °F 33.8 °F 70% 29.90 in 10.0 mi West 9.2 mph - N/A   Overcast
12:20 PM 42.8 °F 35.8 °F 33.8 °F 70% 29.90 in 10.0 mi West 13.8 mph - N/A   Overcast
12:30 PM 42.8 °F 35.8 °F 33.8 °F 70% 29.90 in 10.0 mi West 13.8 mph - N/A   Overcast
12:53 PM 43.0 °F 36.0 °F 32.0 °F 65% 29.92 in 10.0 mi West 13.8 mph - N/A   Scattered Clouds
1:53 PM 45.0 °F 37.9 °F 30.9 °F 58% 29.92 in 10.0 mi West 16.1 mph - N/A   Clear
2:53 PM 44.1 °F 39.0 °F 28.9 °F 55% 29.93 in 10.0 mi West 9.2 mph - N/A   Scattered Clouds
3:53 PM 46.0 °F 41.4 °F 28.9 °F 51% 29.94 in 10.0 mi WSW 9.2 mph - N/A   Mostly Cloudy
4:53 PM 44.1 °F 40.1 °F 30.0 °F 58% 29.94 in 10.0 mi West 6.9 mph - N/A   Mostly Cloudy
5:53 PM 43.0 °F 41.3 °F 30.0 °F 60% 29.96 in 10.0 mi WSW 3.5 mph - N/A   Overcast
6:53 PM 41.0 °F 39.0 °F 30.9 °F 67% 29.98 in 10.0 mi SW 3.5 mph - N/A   Overcast
7:53 PM 39.0 °F - 33.1 °F 79% 29.99 in 10.0 mi Calm Calm - N/A   Overcast
8:53 PM 37.9 °F 33.5 °F 30.9 °F 76% 30.00 in 10.0 mi SW 5.8 mph - N/A   Mostly Cloudy
9:53 PM 37.9 °F 35.5 °F 30.9 °F 76% 30.01 in 10.0 mi SW 3.5 mph - N/A   Partly Cloudy
10:53 PM 34.0 °F 28.0 °F 28.9 °F 82% 30.03 in 10.0 mi SSW 6.9 mph - N/A   Scattered Clouds
11:53 PM 37.0 °F 32.4 °F 30.9 °F 79% 30.01 in 10.0 mi SSW 5.8 mph - N/A   Mostly Cloudy